[[{"header":{"parameterUnit":"m.s-1","parameterCategory":2,"la1":30.2992,"la2":30.254,"lo1":-89.0895,"lo2":-89.0443,"dy":0.0025,"dx":0.0025,"nx":19,"ny":19,"refTime":"2026-05-05T03:00:00:Z","depth":"0","parameterNumber":2,"parameterNumberName":"U-component_of_CURRENTS"},"data":[0,0,0,-0.0853,-0.0853,-0.0827,-0.0827,-0.0757,-0.0756,0,0,0,0,0,0,0,0,0,0,0,-0.0857,-0.0857,-0.0853,-0.0853,-0.0827,-0.0827,-0.0757,-0.0756,0,0,0,0,0,0,0,0,0,0,0,-0.0857,-0.0857,-0.0857,-0.0853,-0.0827,-0.0827,-0.0757,-0.0784,0,0,0,0,0,0,0,0,0,0,-0.0813,-0.0807,-0.0857,-0.0857,-0.0853,-0.0827,-0.0827,-0.0786,-0.0782,-0.076,0,-0.0759,0,-0.076,-0.0751,-0.0751,0,0,0,-0.0845,-0.081,-0.0823,-0.0857,-0.0853,-0.0828,-0.0837,-0.0784,-0.078,-0.0756,-0.0758,-0.0755,-0.0759,-0.0751,-0.0751,-0.0838,-0.084,0,0,-0.0847,-0.0831,-0.0826,-0.0821,-0.0848,-0.0838,-0.0836,-0.0782,-0.0766,-0.0758,-0.0754,-0.0758,-0.075,-0.075,-0.0837,-0.0839,0,0,0,-0.0856,-0.0832,-0.0846,-0.0823,-0.0824,-0.0837,-0.0835,-0.0768,-0.0779,-0.0753,-0.0757,-0.075,-0.0749,-0.0835,-0.0837,-0.0702,0,0,0,-0.0856,-0.0839,-0.0847,-0.0835,-0.0825,-0.0796,-0.0822,-0.0782,-0.0776,-0.0758,-0.075,-0.0749,-0.0833,-0.0836,-0.0702,-0.0593,0,0,0,-0.0858,-0.0838,-0.0841,-0.0834,-0.083,-0.0798,-0.0804,-0.0781,-0.0779,-0.0751,-0.0748,-0.0832,-0.0836,-0.0702,-0.0596,-0.047,0,0,0,-0.0836,-0.0819,-0.084,-0.0824,-0.0831,-0.0815,-0.0804,-0.0776,-0.0752,-0.075,-0.0834,-0.0837,-0.0702,-0.0599,-0.0474,-0.0343,-0.0314,0,0,-0.0804,-0.0814,-0.0809,-0.0829,-0.0818,-0.0818,-0.0782,-0.0748,-0.0813,-0.0842,-0.0845,-0.0702,-0.0597,-0.0471,-0.055,-0.0513,0,0,0,-0.0793,-0.0779,-0.0784,-0.078,-0.0791,-0.0751,-0.0743,-0.0779,-0.0824,-0.0819,-0.0814,-0.0753,-0.0675,-0.0611,-0.0585,-0.0571,-0.0854,-0.0853,-0.0853,-0.07,-0.073,-0.0711,-0.0731,-0.0717,-0.0704,-0.0671,-0.0733,-0.0796,-0.0857,-0.0727,-0.0652,-0.0593,-0.0569,-0.0561,-0.0853,-0.0853,-0.0853,-0.0852,-0.0639,-0.0627,-0.0648,-0.0642,-0.0635,-0.0605,-0.0616,-0.0641,-0.0613,-0.0759,-0.0689,-0.0579,-0.053,-0.0534,-0.0846,-0.0847,-0.0848,-0.0848,-0.0849,-0.0574,-0.0572,-0.0581,-0.057,-0.053,-0.0531,-0.0448,-0.0461,-0.0493,-0.0397,-0.0328,-0.0329,-0.0247,-0.0371,-0.0369,-0.0368,-0.0368,-0.0367,-0.0366,-0.051,-0.0517,-0.0492,-0.0487,-0.0461,-0.0418,-0.035,-0.0284,-0.0166,-0.0153,-0.0153,-0.0248,-0.0504,-0.0424,-0.0351,-0.0354,-0.0356,-0.0357,-0.0358,-0.0423,-0.0438,-0.0394,-0.037,-0.0314,-0.0225,-0.0187,0.0006,0.0107,0.0213,0.0148,-0.002,-0.0022,-0.0048,0.0039,0.0228,0.0228,0.0228,0.0228,-0.0358,-0.0367,-0.0296,-0.0235,-0.0162,-0.012,0.0083,0.0226,0.0371,0.0451,0.0393,0.028,0.0255,0.0259,0.0227,0.0312,0.0567,0.0567,0.0568,-0.0289,-0.0283,-0.0209,-0.0176,-0.0087,0.0005,0.0181,0.0361,0.0569,0.0575,0.0394,0.038,0.0193,0.0154,0.013,0.0085,0.0212,0,0]},{"header":{"parameterUnit":"m.s-1","parameterCategory":2,"la1":30.2992,"la2":30.254,"lo1":-89.0895,"lo2":-89.0443,"dy":0.0025,"dx":0.0025,"nx":19,"ny":19,"refTime":"2026-05-05T03:00:00:Z","depth":"0","parameterNumber":3,"parameterNumberName":"V-component_of_CURRENTS"},"data":[0,0,0,0.0109,0.011,0.022,0.0221,0.0426,0.0427,0,0,0,0,0,0,0,0,0,0,0,0.0083,0.0083,0.0109,0.0111,0.022,0.0221,0.0426,0.0427,0,0,0,0,0,0,0,0,0,0,0,0.0083,0.0083,0.0083,0.0111,0.022,0.0221,0.0425,0.0336,0,0,0,0,0,0,0,0,0,0,0.0226,0.018,0.0083,0.0083,0.0111,0.022,0.0221,0.0332,0.0342,0.0382,0,0.038,0,0.0387,0.0439,0.044,0,0,0,0.0151,0.0171,0.0189,0.0083,0.0112,0.0219,0.0182,0.0337,0.0349,0.0396,0.0382,0.0389,0.039,0.044,0.0441,0.0458,0.0457,0,0,0.0145,0.0124,0.018,0.0195,0.0116,0.0178,0.0185,0.0344,0.0354,0.0383,0.0394,0.0394,0.0441,0.0443,0.0459,0.0458,0,0,0,0.01,0.0119,0.0134,0.0187,0.019,0.018,0.0188,0.0348,0.0348,0.0396,0.0396,0.0442,0.0444,0.046,0.0459,0.0311,0,0,0,0.0099,0.009,0.013,0.0122,0.0186,0.026,0.0189,0.0338,0.0355,0.0395,0.0442,0.0446,0.0462,0.046,0.0318,0.0313,0,0,0,0.0082,0.0089,0.0091,0.012,0.0147,0.0257,0.027,0.0342,0.0354,0.044,0.0446,0.0463,0.046,0.0324,0.0322,0.0353,0,0,0,0.0074,0.0048,0.0091,0.0064,0.0145,0.0151,0.0269,0.0309,0.0369,0.0443,0.0462,0.0459,0.0326,0.0327,0.0356,0.0468,0.046,0,0,0.0029,0.0042,0.0023,0.0062,0.0036,0.014,0.0118,0.0253,0.0343,0.0425,0.0425,0.0316,0.0322,0.0353,0.0317,0.0315,0,0,0,-0.0,-0.0011,-0.0015,-0.0013,0.0009,0.0046,0.0144,0.0174,0.0243,0.0359,0.0304,0.0314,0.0339,0.0412,0.0408,0.0593,0.0447,0.0447,0.0447,-0.0064,-0.0058,-0.0088,-0.0078,-0.0068,-0.0019,0.0004,0.007,0.0144,0.0129,0.0181,0.0095,0.0164,0.0165,0.035,0.0138,0.0137,0.0137,0.0136,-0.0125,-0.0135,-0.0126,-0.0151,-0.0126,-0.0126,-0.009,-0.0059,-0.0021,0.0028,0.0058,0.0237,0.0154,0.0353,0.0127,0.0128,0.0129,0.013,0.0131,-0.0151,-0.0154,-0.017,-0.0189,-0.0188,-0.0165,-0.0146,-0.0133,-0.009,-0.0097,0.0086,0.0091,0.0289,-0.0062,-0.0062,-0.0062,-0.0062,-0.0062,-0.0062,-0.0158,-0.0176,-0.02,-0.0217,-0.0218,-0.02,-0.0162,-0.013,-0.005,-0.001,-0.0008,0.0283,0.0038,0.0073,-0.0061,-0.0061,-0.0061,-0.0061,-0.0061,-0.0176,-0.0182,-0.0216,-0.0229,-0.0224,-0.0187,-0.0151,-0.0027,0.0018,0.0081,0.0331,0.0057,0.0153,0.0158,0.0197,0.0104,0.0104,0.0104,0.0104,-0.0173,-0.0185,-0.0209,-0.0223,-0.0215,-0.0173,-0.0038,0.0121,0.0349,0.0506,0.0499,0.0548,0.0533,0.0654,0.0648,0.0699,0.0735,0.0736,0.0737,-0.0173,-0.0182,-0.0189,-0.0211,-0.0201,-0.0142,0.0026,0.0331,0.0696,0.0777,0.0729,0.0702,0.0785,0.0747,0.0947,0.0923,0.101,0,0]}],[{"header":{"parameterUnit":"m.s-1","parameterCategory":2,"la1":30.2992,"la2":30.254,"lo1":-89.0895,"lo2":-89.0443,"dy":0.0025,"dx":0.0025,"nx":19,"ny":19,"refTime":"2026-05-05T03:00:00:Z","depth":"2","parameterNumber":2,"parameterNumberName":"U-component_of_CURRENTS"},"data":[0,0,0,-0.1134,-0.1134,-0.1192,-0.1193,-0.1247,-0.1247,0,0,0,0,0,0,0,0,0,0,0,-0.1114,-0.1113,-0.1134,-0.1134,-0.1192,-0.1193,-0.1247,-0.1247,0,0,0,0,0,0,0,0,0,0,0,-0.1114,-0.1113,-0.1113,-0.1134,-0.1192,-0.1193,-0.1247,-0.1215,0,0,0,0,0,0,0,0,0,0,-0.1164,-0.1133,-0.1113,-0.1113,-0.1134,-0.1192,-0.1193,-0.1214,-0.1217,-0.1205,0,-0.1194,0,-0.1207,-0.1248,-0.1248,0,0,0,-0.1164,-0.113,-0.1144,-0.1113,-0.1134,-0.1192,-0.1174,-0.1216,-0.122,-0.1209,-0.1195,-0.1197,-0.1208,-0.1248,-0.1248,-0.1327,-0.1328,0,0,-0.116,-0.1132,-0.1142,-0.1145,-0.1121,-0.1172,-0.1176,-0.1219,-0.121,-0.1195,-0.1198,-0.1208,-0.1248,-0.1248,-0.1327,-0.1328,0,0,0,-0.1131,-0.1129,-0.1144,-0.1143,-0.1147,-0.1173,-0.1177,-0.1209,-0.1212,-0.1199,-0.1209,-0.1248,-0.1248,-0.1326,-0.1327,-0.1255,0,0,0,-0.1131,-0.111,-0.1142,-0.1127,-0.1145,-0.1179,-0.1166,-0.121,-0.1215,-0.1209,-0.1248,-0.1248,-0.1325,-0.1326,-0.1255,-0.1221,0,0,0,-0.1116,-0.1109,-0.1107,-0.1125,-0.1137,-0.1179,-0.1187,-0.1212,-0.1219,-0.1248,-0.1248,-0.1324,-0.1326,-0.1255,-0.1222,-0.1137,0,0,0,-0.1099,-0.1095,-0.1106,-0.1142,-0.1136,-0.1268,-0.1187,-0.1267,-0.1304,-0.1248,-0.1325,-0.1327,-0.1255,-0.1223,-0.1139,-0.1017,-0.0998,0,0,-0.1093,-0.1093,-0.1131,-0.1142,-0.1251,-0.1263,-0.136,-0.1344,-0.1323,-0.1312,-0.1314,-0.1255,-0.1222,-0.1138,-0.1131,-0.1108,0,0,0,-0.1133,-0.1128,-0.1186,-0.1235,-0.1346,-0.1406,-0.1429,-0.1398,-0.135,-0.1344,-0.1316,-0.1299,-0.1246,-0.1179,-0.1163,-0.1336,-0.1336,-0.1336,-0.1336,-0.104,-0.1128,-0.1187,-0.1302,-0.1387,-0.149,-0.149,-0.1442,-0.1432,-0.1393,-0.1285,-0.1237,-0.1171,-0.1156,-0.134,-0.134,-0.134,-0.134,-0.1339,-0.1009,-0.1043,-0.1137,-0.1205,-0.1325,-0.1383,-0.1448,-0.1415,-0.1298,-0.1321,-0.1271,-0.1166,-0.1132,-0.1335,-0.1336,-0.1336,-0.1337,-0.1337,-0.1337,-0.0931,-0.096,-0.0992,-0.107,-0.1127,-0.1259,-0.1202,-0.1234,-0.121,-0.1149,-0.1035,-0.1035,-0.1129,-0.1093,-0.1092,-0.1091,-0.1091,-0.1091,-0.109,-0.0842,-0.0888,-0.0863,-0.0942,-0.0952,-0.0988,-0.1052,-0.1027,-0.0988,-0.0956,-0.0954,-0.1153,-0.1161,-0.1118,-0.1083,-0.1084,-0.1085,-0.1086,-0.1086,-0.0754,-0.0754,-0.0735,-0.0729,-0.0766,-0.0769,-0.0858,-0.0808,-0.0755,-0.0717,-0.0839,-0.0847,-0.0844,-0.0859,-0.0811,-0.0698,-0.0698,-0.0698,-0.0698,-0.0661,-0.0674,-0.0626,-0.0601,-0.0609,-0.0674,-0.0575,-0.0564,-0.0586,-0.0587,-0.0593,-0.0641,-0.0658,-0.065,-0.067,-0.062,-0.0457,-0.0457,-0.0457,-0.0571,-0.0597,-0.0523,-0.0528,-0.0547,-0.0552,-0.0466,-0.0316,-0.0329,-0.0456,-0.0633,-0.0666,-0.0754,-0.0774,-0.0781,-0.0805,-0.0733,0,0]},{"header":{"parameterUnit":"m.s-1","parameterCategory":2,"la1":30.2992,"la2":30.254,"lo1":-89.0895,"lo2":-89.0443,"dy":0.0025,"dx":0.0025,"nx":19,"ny":19,"refTime":"2026-05-05T03:00:00:Z","depth":"2","parameterNumber":3,"parameterNumberName":"V-component_of_CURRENTS"},"data":[0,0,0,-0.0176,-0.0175,-0.0103,-0.0103,0.0158,0.0161,0,0,0,0,0,0,0,0,0,0,0,-0.0191,-0.0191,-0.0176,-0.0175,-0.0104,-0.0103,0.0158,0.0161,0,0,0,0,0,0,0,0,0,0,0,-0.0191,-0.0191,-0.019,-0.0175,-0.0104,-0.0103,0.0157,0.0066,0,0,0,0,0,0,0,0,0,0,-0.0023,-0.0076,-0.0191,-0.019,-0.0175,-0.0104,-0.0103,0.006,0.0071,0.0168,0,0.017,0,0.0164,0.018,0.0181,0,0,0,-0.0155,-0.0086,-0.0064,-0.019,-0.0174,-0.0104,-0.013,0.0065,0.0079,0.0184,0.0173,0.0182,0.0168,0.0182,0.0184,0.033,0.033,0,0,-0.0159,-0.0172,-0.0074,-0.0056,-0.0162,-0.0133,-0.0128,0.0071,0.0086,0.0174,0.0187,0.0173,0.0184,0.0186,0.0331,0.033,0,0,0,-0.0184,-0.0175,-0.016,-0.0065,-0.007,-0.0131,-0.0126,0.0077,0.0082,0.0189,0.0176,0.0186,0.0189,0.0331,0.033,0.013,0,0,0,-0.0185,-0.019,-0.0162,-0.0168,-0.0075,-0.0021,-0.0125,0.0068,0.0089,0.0174,0.0186,0.0192,0.0332,0.0331,0.0137,0.0054,0,0,0,-0.0193,-0.0191,-0.0186,-0.0169,-0.0148,-0.0026,-0.0009,0.0072,0.0082,0.0181,0.0193,0.0332,0.0331,0.0143,0.0065,0.0084,0,0,0,-0.0204,-0.0236,-0.0186,-0.0231,-0.0149,-0.0163,-0.0011,0.0012,0.0077,0.0187,0.0332,0.0331,0.0145,0.0072,0.0089,0.0268,0.0259,0,0,-0.0263,-0.0243,-0.0277,-0.0232,-0.0278,-0.0171,-0.0203,-0.0044,0.0099,0.0285,0.0287,0.0135,0.0066,0.0085,0.0188,0.0182,0,0,0,-0.031,-0.0325,-0.0334,-0.0343,-0.0326,-0.03,-0.0173,-0.0106,0.0031,0.013,0.0163,0.0127,0.0145,0.0265,0.0259,0.0324,0.0324,0.0324,0.0324,-0.0379,-0.0389,-0.0436,-0.0433,-0.0431,-0.0379,-0.0353,-0.022,-0.0073,-0.0049,-0.0017,-0.0113,0.0009,0.0008,0.0008,0.0007,0.0006,0.0006,0.0005,-0.0463,-0.0491,-0.0494,-0.0536,-0.0514,-0.0511,-0.0442,-0.0377,-0.0283,-0.0171,-0.0141,0.0071,-0.0009,-0.001,-0.0007,-0.0005,-0.0003,-0.0002,-0.0001,-0.049,-0.0506,-0.0528,-0.0573,-0.0597,-0.0569,-0.0562,-0.0521,-0.0418,-0.0443,-0.0168,-0.0161,-0.0204,-0.0379,-0.0379,-0.038,-0.038,-0.038,-0.038,-0.0501,-0.0532,-0.0558,-0.0604,-0.0621,-0.0629,-0.0614,-0.0568,-0.0442,-0.0349,-0.0345,-0.024,-0.0227,-0.0221,-0.0386,-0.0385,-0.0384,-0.0384,-0.0383,-0.0533,-0.0527,-0.0581,-0.0605,-0.0649,-0.0648,-0.0632,-0.0468,-0.041,-0.0317,-0.0251,-0.0252,-0.0143,-0.0133,-0.0121,-0.025,-0.025,-0.025,-0.025,-0.0524,-0.0537,-0.0589,-0.0634,-0.0674,-0.0659,-0.0503,-0.027,-0.013,-0.0006,-0.0017,0.0083,0.0073,0.0202,0.0204,0.0226,0.0187,0.0187,0.0188,-0.0523,-0.055,-0.0576,-0.0628,-0.0687,-0.0637,-0.0415,-0.0025,0.0265,0.0201,0.0018,-0.0213,-0.009,-0.0096,0.009,0.0097,0.013,0,0]}],[{"header":{"parameterUnit":"m.s-1","parameterCategory":2,"la1":30.2992,"la2":30.254,"lo1":-89.0895,"lo2":-89.0443,"dy":0.0025,"dx":0.0025,"nx":19,"ny":19,"refTime":"2026-05-05T03:00:00:Z","depth":"4","parameterNumber":2,"parameterNumberName":"U-component_of_CURRENTS"},"data":[0,0,0,-0.107,-0.1073,-0.1207,-0.1208,-0.1337,-0.1338,0,0,0,0,0,0,0,0,0,0,0,-0.1017,-0.1018,-0.1069,-0.1073,-0.1207,-0.1208,-0.1337,-0.1338,0,0,0,0,0,0,0,0,0,0,0,-0.1017,-0.1018,-0.1019,-0.1073,-0.1207,-0.1208,-0.1337,-0.1245,0,0,0,0,0,0,0,0,0,0,-0.112,-0.1079,-0.1018,-0.1019,-0.1074,-0.1207,-0.1208,-0.1241,-0.1251,-0.1264,0,-0.1286,0,-0.1318,-0.1346,-0.1346,0,0,0,-0.1072,-0.1071,-0.1108,-0.1019,-0.1075,-0.1207,-0.1146,-0.1247,-0.1258,-0.1277,-0.1289,-0.1294,-0.1321,-0.1347,-0.1347,-0.1467,-0.1467,0,0,-0.1064,-0.1042,-0.1101,-0.1115,-0.1112,-0.1142,-0.115,-0.1254,-0.1265,-0.1289,-0.1298,-0.1323,-0.1347,-0.1348,-0.1466,-0.1467,0,0,0,-0.1044,-0.1037,-0.1072,-0.1109,-0.1139,-0.1146,-0.1156,-0.126,-0.1272,-0.1299,-0.1324,-0.1348,-0.1349,-0.1466,-0.1467,-0.1519,0,0,0,-0.1039,-0.1025,-0.1068,-0.1057,-0.1137,-0.1208,-0.1159,-0.1265,-0.1278,-0.1323,-0.1348,-0.1351,-0.1465,-0.1466,-0.1517,-0.1514,0,0,0,-0.1011,-0.1022,-0.1038,-0.1055,-0.1115,-0.1207,-0.1226,-0.1269,-0.1293,-0.1346,-0.1351,-0.1465,-0.1466,-0.1515,-0.1511,-0.1547,0,0,0,-0.0982,-0.1014,-0.1038,-0.1086,-0.1114,-0.1218,-0.1226,-0.1311,-0.1361,-0.1349,-0.1465,-0.1466,-0.1514,-0.1509,-0.1544,-0.1234,0,0,0,-0.1005,-0.1017,-0.1046,-0.107,-0.1132,-0.1199,-0.1306,-0.1371,-0.1377,-0.1427,-0.143,-0.1518,-0.1511,-0.1546,-0.1299,0,0,0,0,-0.1042,-0.1055,-0.1079,-0.1125,-0.1202,-0.1288,-0.1377,-0.1417,-0.1481,-0.1412,-0.1524,-0.1517,-0.1539,-0.1352,-0.1472,-0.1471,-0.1471,-0.1471,-0.1471,-0.1008,-0.1055,-0.1099,-0.1169,-0.1244,-0.137,-0.1449,-0.1519,-0.153,-0.1565,-0.1567,-0.1633,-0.1439,-0.1587,-0.1587,-0.1587,-0.1588,-0.1588,-0.1588,-0.1003,-0.1024,-0.1106,-0.1167,-0.1272,-0.1379,-0.1525,-0.1565,-0.1656,-0.1632,-0.1651,-0.1427,-0.1593,-0.1592,-0.1591,-0.1591,-0.159,-0.159,-0.159,-0.0958,-0.0975,-0.1039,-0.1129,-0.1247,-0.1377,-0.1455,-0.1579,-0.1666,-0.1711,-0.1501,-0.1665,-0.1653,-0.1721,-0.1721,-0.1721,-0.1721,-0.1721,-0.1721,-0.087,-0.0939,-0.0967,-0.1089,-0.1143,-0.1244,-0.1414,-0.1456,-0.1583,-0.1508,-0.1713,-0.1678,-0.1673,-0.166,-0.1724,-0.1723,-0.1723,-0.1723,-0.1723,-0.0809,-0.0853,-0.0861,-0.0908,-0.1004,-0.108,-0.1253,-0.1271,-0.1316,-0.1302,-0.1408,-0.1422,-0.1369,-0.1373,-0.1347,-0.132,-0.1316,-0.1313,0,-0.0754,-0.0781,-0.0764,-0.0779,-0.0803,-0.0969,-0.0917,-0.0997,-0.1132,-0.1099,-0.1364,-0.1486,-0.1494,-0.1437,-0.1433,-0.1402,0,0,0,-0.0717,-0.071,-0.0678,-0.0699,-0.0713,-0.0778,-0.09,-0.0858,-0.1126,-0.102,-0.1218,-0.1243,-0.1463,-0.1732,-0.1686,-0.1681,-0.1657,0,0]},{"header":{"parameterUnit":"m.s-1","parameterCategory":2,"la1":30.2992,"la2":30.254,"lo1":-89.0895,"lo2":-89.0443,"dy":0.0025,"dx":0.0025,"nx":19,"ny":19,"refTime":"2026-05-05T03:00:00:Z","depth":"4","parameterNumber":3,"parameterNumberName":"V-component_of_CURRENTS"},"data":[0,0,0,-0.0181,-0.0181,-0.0143,-0.0142,0.006,0.0062,0,0,0,0,0,0,0,0,0,0,0,-0.0184,-0.0184,-0.0181,-0.0181,-0.0143,-0.0142,0.0059,0.0062,0,0,0,0,0,0,0,0,0,0,0,-0.0184,-0.0184,-0.0184,-0.0181,-0.0143,-0.0142,0.0059,-0.0003,0,0,0,0,0,0,0,0,0,0,-0.0057,-0.0098,-0.0184,-0.0184,-0.0181,-0.0143,-0.0142,-0.0008,0.0001,0.0079,0,0.0076,0,0.0064,0.0077,0.0078,0,0,0,-0.016,-0.0105,-0.0091,-0.0184,-0.0181,-0.0143,-0.0154,-0.0004,0.0006,0.0091,0.0078,0.0084,0.0067,0.0078,0.0079,0.0321,0.0321,0,0,-0.0163,-0.0172,-0.0099,-0.0086,-0.0179,-0.0156,-0.0153,0.0,0.0009,0.0079,0.0088,0.0071,0.008,0.0081,0.032,0.0321,0,0,0,-0.0183,-0.0173,-0.0166,-0.0093,-0.0103,-0.0155,-0.0152,0.0002,0.0005,0.009,0.0073,0.0081,0.0084,0.0319,0.032,0.0228,0,0,0,-0.0183,-0.0187,-0.0168,-0.0172,-0.0108,-0.0074,-0.0153,-0.0005,0.001,0.0072,0.0081,0.0086,0.0318,0.0319,0.0229,0.0156,0,0,0,-0.0184,-0.0187,-0.0185,-0.0173,-0.0167,-0.0078,-0.0066,-0.0003,0.0001,0.0078,0.0087,0.0317,0.0319,0.0229,0.0158,0.0172,0,0,0,-0.019,-0.0206,-0.0186,-0.0201,-0.0167,-0.0131,-0.0068,-0.0024,0.0035,0.0082,0.0318,0.032,0.0229,0.016,0.0173,0.0097,0,0,0,-0.0218,-0.021,-0.0219,-0.02,-0.0194,-0.0134,-0.0082,0.0017,0.0108,0.0279,0.0284,0.0228,0.0159,0.0173,0.0235,0,0,0,0,-0.0232,-0.0242,-0.0232,-0.0228,-0.0184,-0.013,-0.0036,0.0043,0.0184,0.0149,0.0301,0.0261,0.0271,0.0236,0.0331,0.0331,0.033,0.033,0.033,-0.0261,-0.0258,-0.0274,-0.0253,-0.0214,-0.0108,-0.0044,0.0096,0.0187,0.0254,0.0241,0.0258,0.0224,0.0324,0.0323,0.0323,0.0323,0.0322,0.0322,-0.0309,-0.0327,-0.0312,-0.0334,-0.0261,-0.0202,-0.0028,0.0046,0.0188,0.0256,0.0272,0.0209,0.0315,0.0316,0.0318,0.0318,0.0319,0.0319,0.032,-0.0333,-0.0347,-0.0375,-0.0399,-0.0376,-0.0272,-0.0213,-0.0069,0.009,0.0104,0.0129,0.0215,0.0161,0.0139,0.0139,0.0138,0.0138,0.0138,0.0138,-0.0345,-0.0377,-0.0431,-0.0464,-0.0482,-0.0453,-0.0315,-0.0227,-0.0057,0.0016,0.009,0.0197,0.0203,0.0155,0.0134,0.0135,0.0135,0.0136,0.0136,-0.0383,-0.0409,-0.0473,-0.0519,-0.0568,-0.0557,-0.0467,-0.0299,-0.0206,-0.0108,-0.0001,0.0007,0.0033,0.0043,-0.0011,-0.0082,-0.0083,-0.0084,0,-0.0404,-0.0424,-0.0505,-0.057,-0.061,-0.0599,-0.0522,-0.041,-0.0216,-0.0222,-0.0162,-0.0048,-0.004,-0.0013,-0.0006,-0.0072,0,0,0,-0.0435,-0.0446,-0.0504,-0.0571,-0.0625,-0.0551,-0.0494,-0.0436,-0.0278,-0.0198,-0.0112,-0.0104,0.0005,0.0123,0.0183,0.0191,0.0116,0,0]}]]